Regional Weather Roundup
Issued by NWS

Home | Current Version | Previous Version | Graphics & Text | Print | Product List | Glossary On
Versions: 1 2 3 4 5 6 7 8 9 10 11 12 13 14 15 16 17 18 19 20 21 22 23 24 25 26 27 28 29 30 31 32 33 34 35 36 37 38 39 40 41 42 43 44 45 46 47 48 49 50
000
ASUS44 KMEG 031200
RWRTN
TENNESSEE HOURLY STATE WEATHER ROUNDUP
NATIONAL WEATHER SERVICE MEMPHIS TN
700 AM CDT TUE MAY 03 2016

TNZ002-004-019-021-049-052-054-088>092-031300-
WEST TENNESSEE

CITY           SKY/WX    TMP DP  RH WIND       PRES   REMARKS
MEMPHIS INTL   MOCLDY    56  51  84 N3        30.00R
NWS MEMPHIS      N/A     54 N/A N/A MISG        N/A
JACKSON        PTSUNNY   55  51  86 NW3       29.99R
DYERSBURG      CLOUDY    55  52  88 CALM        N/A
UNION CITY     CLOUDY    54  52  94 NW6       29.99R
LEXINGTON      CLOUDY    54  52  94 N5        29.97R
$$

TNZ008-025-027-028-033-062-065-066-031300-
NORTH MIDDLE TENNESSEE

CITY           SKY/WX    TMP DP  RH WIND       PRES   REMARKS
NASHVILLE      PTSUNNY   56  51  84 NW5       29.97R
CLARKSVILLE    CLOUDY    54  49  83 N7        29.97R
COOKEVILLE     CLOUDY    55  55 100 CALM      29.93S
CROSSVILLE     CLOUDY    55  52  89 CALM      29.95R
$$

TNZ061-075-076-078-094-096-097-031300-
SOUTH MIDDLE TENNESSEE

CITY           SKY/WX    TMP DP  RH WIND       PRES   REMARKS
TULLAHOMA      PTSUNNY   55  55 100 NE3       29.95S
WINCHESTER     CLOUDY    57  54  88 N6        29.95S
MCMINNVILLE    CLOUDY    55  55 100 N3        29.95S
COLUMBIA       MOSUNNY  N/A N/A N/A N3        29.95R
SHELBYVILLE    MOSUNNY   55  55 100 N3        29.97R
$$

TNZ017-018-042-046-047-031300-
NORTHEAST TENNESSEE

CITY           SKY/WX    TMP DP  RH WIND       PRES   REMARKS
TRI CITIES     CLOUDY    60  57  89 NW5       29.89R
$$

TNZ012-013-036-069-073-074-031300-
CENTRAL EAST TENNESSEE

CITY           SKY/WX    TMP DP  RH WIND       PRES   REMARKS
KNOXVILLE      CLOUDY    61  59  93 SW7       29.89R FOG
OAK RIDGE      CLOUDY    61  58  90 CALM      29.92R
GATLINBURG     CLOUDY    61  61 100 CALM      29.89R
$$

TNZ083-085-099-031300-
SOUTHEAST TENNESSEE

CITY           SKY/WX    TMP DP  RH WIND       PRES   REMARKS
CHATTANOOGA    CLOUDY    63  58  83 N10       29.92R
$$

SKY/WX REPORTED AS FAIR MEANS FEW OR NO CLOUDS BELOW
12 THOUSAND FEET.




USA.gov is the U.S. government's official web portal to all federal, state and local government web resources and services.